FW2794 Weather Reports


time (UTC)temp
F
wind
direction
speed
knots
gust
knots
rain 1hr
in
rain 24hr
in
rain mn
in
humidity
%
barometer
mb
20260506032439 66 224 1.7 2.6 0.00 0.00 0.00 100 1018.6
20260506031940 66 224 0.9 2.6 0.00 0.00 0.00 100 1018.6
20260506031437 66 224 0.9 2.6 0.00 0.00 0.00 100 1018.6
20260506030938 66 224 0.9 2.6 0.00 0.00 0.00 100 1018.6
20260506025939 66 224 1.7 3.5 0.00 0.00 0.00 100 1018.7
20260506025437 66 224 1.7 3.5 0.00 0.00 0.00 100 1018.6
20260506024936 66 224 1.7 3.5 0.00 0.00 0.00 100 1018.6
20260506024435 66 224 1.7 3.5 0.00 0.00 0.00 100 1018.6
20260506023933 66 224 1.7 2.6 0.00 0.00 0.00 100 1018.6
20260506020433 66 223 1.7 3.5 0.00 0.00 0.00 100 1018.6
20260506015933 66 223 1.7 3.5 0.00 0.00 0.00 100 1018.6
20260506014933 66 223 0.9 2.6 0.00 0.00 0.00 100 1018.6
20260506014433 66 223 0.9 2.6 0.00 0.00 0.00 100 1018.6
20260506013431 66 223 0.9 2.6 0.00 0.00 0.00 100 1018.7
20260506012931 66 223 0.9 2.6 0.00 0.00 0.00 100 1018.6
20260506012433 66 224 0.9 2.6 0.00 0.00 0.00 100 1018.6
20260506011433 66 224 0.9 1.7 0.00 0.00 0.00 100 1018.6
20260506005430 67 224 0.9 2.6 0.00 0.00 0.00 100 1018.1
20260506004429 67 224 1.7 4.3 0.00 0.00 0.00 100 1018.1
20260506003929 67 224 1.7 4.3 0.00 0.00 0.00 100 1018.1
20260506003429 67 224 1.7 4.3 0.00 0.00 0.00 100 1018.0
20260506002930 67 224 2.6 5.2 0.00 0.00 0.00 100 1018.1
20260506002428 68 224 2.6 5.2 0.00 0.00 0.00 100 1018.1
20260506001928 68 223 1.7 3.5 0.00 0.00 0.00 100 1018.1
20260506001427 68 222 1.7 4.3 0.00 0.00 0.00 100 1018.0
20260506000928 68 225 1.7 4.3 0.00 0.00 0.00 100 1018.0
20260506000427 68 224 1.7 4.3 0.00 0.00 0.00 100 1018.0
20260505235425 68 225 1.7 5.2 0.00 0.00 0.00 100 1018.0
20260505234923 69 225 1.7 5.2 0.00 0.00 0.00 100 1018.1
20260505234423 69 225 2.6 5.2 0.00 0.00 0.00 100 1018.0
20260505233922 69 225 2.6 5.2 0.00 0.00 0.00 100 1018.0
20260505233421 69 223 2.6 5.2 0.00 0.00 0.00 100 1018.1
20260505232920 69 225 1.7 4.3 0.00 0.00 0.00 100 1018.1
20260505232416 69 225 2.6 6.1 0.00 0.00 0.00 100 1018.1
20260505231917 70 225 2.6 7.0 0.00 0.00 0.00 100 1018.1
20260505231418 70 221 2.6 7.0 0.00 0.00 0.00 100 1018.2
20260505230917 70 222 3.5 7.0 0.00 0.00 0.00 100 1018.2
20260505230418 70 225 2.6 7.0 0.00 0.00 0.00 100 1018.2
20260505224915 71 215 3.5 7.0 0.00 0.00 0.00 100 1018.3
20260505223915 71 221 3.5 7.8 0.00 0.00 0.00 100 1018.4
20260505222914 72 206 2.6 7.0 0.00 0.00 0.00 100 1018.3
20260505222413 72 215 2.6 5.2 0.00 0.00 0.00 100 1018.3
20260505221912 72 137 2.6 7.8 0.00 0.00 0.00 100 1018.3
20260505221411 73 219 1.7 7.8 0.00 0.00 0.00 100 1018.3
20260505220908 73 222 1.7 5.2 0.00 0.00 0.00 100 1018.2
20260505220410 73 198 2.6 7.0 0.00 0.00 0.00 100 1018.1
20260505215910 73 223 2.6 7.0 0.00 0.00 0.00 100 1018.2
20260505214908 73 215 3.5 7.8 0.00 0.00 0.00 100 1018.2
20260505214406 73 219 3.5 7.0 0.00 0.00 0.00 100 1018.2
20260505213908 73 219 3.5 7.8 0.00 0.00 0.00 100 1018.3
20260505213408 73 202 3.5 7.8 0.00 0.00 0.00 100 1018.3
20260505212407 73 213 3.5 7.8 0.00 0.00 0.00 100 1018.0
20260505211904 73 171 3.5 8.7 0.00 0.00 0.00 100 1018.0
20260505211406 73 211 3.5 8.7 0.00 0.00 0.00 100 1018.0
20260505210906 73 157 3.5 8.7 0.00 0.00 0.00 100 1018.0
20260505210406 73 188 3.5 7.8 0.00 0.00 0.00 100 1018.0
20260505205905 72 215 3.5 10.4 0.00 0.00 0.00 100 1017.9
20260505205405 73 223 3.5 10.4 0.00 0.00 0.00 100 1017.9
20260505204905 73 219 3.5 10.4 0.00 0.00 0.00 100 1018.1
20260505204405 73 204 3.5 10.4 0.00 0.00 0.00 100 1018.1
20260505202904 73 214 2.6 7.0 0.00 0.00 0.00 100 1018.3
20260505201904 74 219 3.5 9.6 0.00 0.00 0.00 100 1018.3
20260505201405 73 210 3.5 13.0 0.00 0.00 0.00 100 1018.3
20260505200906 73 186 3.5 13.0 0.00 0.00 0.00 100 1018.4
20260505200404 74 192 3.5 9.6 0.00 0.00 0.00 100 1018.4
20260505195402 74 219 2.6 7.8 0.00 0.00 0.00 100 1018.6
20260505194900 73 217 2.6 8.7 0.00 0.00 0.00 100 1018.4
20260505194402 73 223 2.6 8.7 0.00 0.00 0.00 100 1018.7
20260505193901 73 211 2.6 7.8 0.00 0.00 0.00 100 1018.8
20260505191859 74 163 2.6 8.7 0.00 0.00 0.00 100 1019.0
20260505191359 74 228 3.5 8.7 0.00 0.00 0.00 100 1019.0
20260505190858 74 169 4.3 12.2 0.00 0.00 0.00 100 1019.0
20260505190358 73 227 5.2 12.2 0.00 0.00 0.00 100 1019.1
20260505185858 74 217 5.2 13.9 0.00 0.00 0.00 100 1019.3
20260505185358 74 223 4.3 13.9 0.00 0.00 0.00 100 1019.3
20260505184859 74 225 4.3 10.4 0.00 0.00 0.00 100 1019.3
20260505184358 74 223 4.3 7.8 0.00 0.00 0.00 100 1019.3
20260505183859 75 118 4.3 8.7 0.00 0.00 0.00 100 1019.3
20260505183356 74 226 4.3 9.6 0.00 0.00 0.00 100 1019.4
20260505182856 74 221 5.2 13.0 0.00 0.00 0.00 100 1019.3
20260505181856 75 215 3.5 8.7 0.00 0.00 0.00 100 1019.3
20260505180856 75 227 3.5 11.3 0.00 0.00 0.00 100 1019.3
20260505175852 75 221 3.5 7.8 0.00 0.00 0.00 100 1019.3
20260505174853 74 207 4.3 10.4 0.00 0.00 0.00 100 1019.5
20260505174353 74 221 4.3 10.4 0.00 0.00 0.00 100 1019.5
20260505173851 74 217 4.3 10.4 0.00 0.00 0.00 100 1019.5
20260505173350 74 221 4.3 9.6 0.00 0.00 0.00 100 1019.4
20260505172850 73 221 5.2 10.4 0.00 0.00 0.00 100 1019.5
20260505172350 74 233 3.5 10.4 0.00 0.00 0.00 100 1019.4
20260505171350 74 182 3.5 9.6 0.00 0.00 0.00 100 1019.5
20260505170351 74 159 3.5 9.6 0.00 0.00 0.00 100 1019.6
20260505165850 74 207 3.5 10.4 0.00 0.00 0.00 100 1019.5
20260505165350 74 192 2.6 10.4 0.00 0.00 0.00 100 1019.5
20260505164851 74 219 3.5 7.8 0.00 0.00 0.00 100 1019.7
20260505164348 73 221 4.3 8.7 0.00 0.00 0.00 100 1019.7
20260505163849 73 200 5.2 11.3 0.00 0.00 0.00 100 1019.7
20260505163348 73 225 5.2 11.3 0.00 0.00 0.00 100 1019.7
20260505162849 73 218 5.2 9.6 0.00 0.00 0.00 100 1019.6
20260505161347 73 223 3.5 7.8 0.00 0.00 0.00 100 1020.0
20260505160844 73 239 4.3 9.6 0.00 0.00 0.00 100 1020.0
20260505160345 73 100 5.2 9.6 0.00 0.00 0.00 100 1020.1
20260505152841 73 214 3.5 9.6 0.00 0.00 0.00 100 1019.8
20260505152419 72 131 4.3 9.6 0.00 0.00 0.00 100 1019.9
20260505140332 71 224 2.6 7.0 0.00 0.00 0.00 100 1019.7
20260505124829 68 224 2.6 4.3 0.00 0.00 0.00 100 1019.5
20260505124325 67 224 1.7 4.3 0.00 0.00 0.00 100 1019.6
20260505123823 67 224 1.7 3.5 0.00 0.00 0.00 100 1019.6
20260505115315 59 224 0.0 0.0 0.00 0.00 0.00 100 1019.5
20260505114315 57 224 0.0 0.0 0.00 0.00 0.00 100 1019.4
20260505113816 56 224 0.0 0.0 0.00 0.00 0.00 100 1019.3
20260505113316 55 224 0.0 0.0 0.00 0.00 0.00 100 1019.2
20260505112815 54 224 0.0 0.0 0.00 0.00 0.00 100 1019.2
20260505111312 53 224 0.0 0.0 0.00 0.00 0.00 100 1019.1
20260505110813 53 224 0.0 0.0 0.00 0.00 0.00 100 1018.9
20260505110312 53 224 0.0 0.0 0.00 0.00 0.00 100 1018.9
20260505101809 52 224 0.0 0.0 0.00 0.00 0.00 100 1018.4
20260505101310 52 224 0.0 0.0 0.00 0.00 0.00 100 1018.3
20260505100309 53 224 0.0 0.0 0.00 0.00 0.00 100 1018.3
20260505095809 53 224 0.0 0.0 0.00 0.00 0.00 100 1018.2
20260505095310 53 224 0.0 0.0 0.00 0.00 0.00 100 1018.2
20260505094807 53 224 0.0 0.0 0.00 0.00 0.00 100 1018.1
20260505094309 53 224 0.0 0.0 0.00 0.00 0.00 100 1018.1
20260505093808 53 224 0.0 0.0 0.00 0.00 0.00 100 1018.1
20260505092307 53 224 0.0 0.0 0.00 0.00 0.00 100 1018.0
20260505091808 53 224 0.0 0.0 0.00 0.00 0.00 100 1018.0
20260505091307 54 224 0.0 0.0 0.00 0.00 0.00 100 1017.9
20260505090308 54 224 0.0 0.0 0.00 0.00 0.00 100 1017.8
20260505085806 54 224 0.0 0.0 0.00 0.00 0.00 100 1017.7
20260505084805 54 224 0.0 0.0 0.00 0.00 0.00 100 1017.9
20260505084305 54 224 0.0 0.0 0.00 0.00 0.00 100 1017.8
20260505083807 54 224 0.0 0.0 0.00 0.00 0.00 100 1017.8
20260505083304 54 224 0.0 0.0 0.00 0.00 0.00 100 1017.7
20260505082806 54 224 0.0 0.0 0.00 0.00 0.00 100 1017.7
20260505082306 55 224 0.0 0.0 0.00 0.00 0.00 100 1017.7
20260505081806 55 224 0.0 0.0 0.00 0.00 0.00 100 1017.7
20260505081305 55 224 0.0 0.0 0.00 0.00 0.00 100 1017.8
20260505080803 55 224 0.0 0.0 0.00 0.00 0.00 100 1017.8
20260505080302 55 224 0.0 0.0 0.00 0.00 0.00 100 1017.8
20260505075803 55 224 0.0 0.0 0.00 0.00 0.00 100 1017.7
20260505075304 55 224 0.0 0.0 0.00 0.00 0.00 100 1017.6
20260505073803 56 224 0.0 0.0 0.00 0.00 0.00 100 1017.5
20260505073303 56 224 0.0 0.0 0.00 0.00 0.00 100 1017.4
20260505072804 56 224 0.0 0.0 0.00 0.00 0.00 100 1017.4
20260505072304 56 224 0.0 0.0 0.00 0.00 0.00 100 1017.4
20260505071802 56 224 0.0 0.0 0.00 0.00 0.00 100 1017.3
20260505071302 57 224 0.0 0.0 0.00 0.00 0.00 100 1017.3
20260505070800 57 224 0.0 0.0 0.00 0.00 0.00 100 1017.3
20260505070259 57 224 0.0 0.0 0.00 0.00 0.00 100 1017.5
20260505065757 57 224 0.0 0.0 0.00 0.00 0.00 100 1017.4
20260505065257 58 224 0.0 0.0 0.00 0.00 0.00 100 1017.5
20260505064758 58 224 0.0 0.0 0.00 0.00 0.00 100 1017.5
20260505064256 58 224 0.0 0.0 0.00 0.00 0.00 100 1017.5
20260505063757 58 224 0.0 0.0 0.00 0.00 0.00 100 1017.6
20260505063257 58 224 0.0 0.0 0.00 0.00 0.00 100 1017.6
20260505062756 58 224 0.0 0.0 0.00 0.00 0.00 100 1017.5
20260505062254 59 224 0.0 0.0 0.00 0.00 0.00 100 1017.6
20260505061756 59 224 0.0 0.0 0.00 0.00 0.00 100 1017.7
20260505055751 59 224 0.0 0.0 0.00 0.00 0.00 100 1018.0
20260505055251 60 224 0.0 0.0 0.00 0.00 0.00 100 1018.0
20260505054752 60 224 0.0 0.9 0.00 0.00 0.00 100 1017.9
20260505054252 60 224 0.9 2.6 0.00 0.00 0.00 100 1018.0
20260505053249 61 224 1.7 3.5 0.00 0.00 0.00 100 1018.0
20260505052750 60 224 0.9 2.6 0.00 0.00 0.00 100 1018.0
20260505052250 60 224 0.0 2.6 0.00 0.00 0.00 100 1018.0
20260505051750 60 224 0.0 0.0 0.00 0.00 0.00 100 1018.1
20260505051250 61 224 0.0 0.0 0.00 0.00 0.00 100 1018.1
20260505050750 61 224 0.0 1.7 0.00 0.00 0.00 100 1018.1
20260505050250 61 224 0.9 2.6 0.00 0.00 0.00 100 1018.1